Weather Roundup
Issued by NWS Chicago, IL

Home | Current Version | Previous Version | Graphics & Text | Print | Product List | Glossary On
Versions: 1 2 3 4 5 6 7 8 9 10 11 12 13 14 15 16 17 18 19 20 21 22 23 24 25 26 27 28 29 30 31 32 33 34 35 36 37 38 39 40 41 42 43 44 45 46 47 48 49 50
000
NZUS59 KLOT 101612
HRRLOT

CHICAGO AREA WEATHER ROUNDUP
NATIONAL WEATHER SERVICE CHICAGO/ROMEOVILLE IL
1000 AM CST SAT DEC 10 2016

NOTE: "FAIR" INDICATES FEW OR NO CLOUDS BELOW 12,000 FEET WITH NO
SIGNIFICANT WEATHER AND/OR OBSTRUCTIONS TO VISIBILITY.

* THESE STATIONS ARE NOT UNDER NWS QUALITY CONTROL. THEY ALSO MAY NOT
  REPORT WEATHER SUCH AS PRECIPITATION OR FOG.

ILZ005-006-012>014-019>023-101700-
NORTHEAST ILLINOIS

CITY           SKY/WX    TMP DP  RH WIND       PRES   REMARKS
OHARE          PTSUNNY   22  14  71 W7        30.51F WCI  13
MIDWAY         PTSUNNY   22  12  65 W7        30.53S WCI  13
AURORA         CLOUDY    21  15  78 W8        30.53S WCI  11
LANSING*       PTSUNNY   22  16  76 W8        30.54S WCI  13
JOLIET*        CLOUDY    23  16  75 W6        30.55S WCI  16
WAUKEGAN       MOSUNNY   20  13  74 W8        30.50S WCI  10
DUPAGE AIRPORT SUNNY     20  13  74 W10       30.51F WCI   9
WHEELING       SUNNY     21  12  68 W8        30.53S WCI  11
KANKAKEE*      CLOUDY    23  16  73 W3        30.56S
MORRIS*        CLOUDY    22  15  74 CALM      30.54S
LEWIS AIRPORT* MOSUNNY   21  18  85 W6        30.54S WCI  14
NORTHERLY ISL    N/A     22  13  68 SW8         N/A  WCI  13
$$

WIZ051-052-058>065-066-070>072-101700-
SOUTHEAST WISCONSIN

CITY           SKY/WX    TMP DP  RH WIND       PRES   REMARKS
MILWAUKEE      FLURRIES  20   9  62 W13G22    30.49F WCI   7
KENOSHA*       PTSUNNY   20  13  74 W13       30.50S WCI   7
RACINE*        MOSUNNY   20  11  68 W9        30.50F WCI   9
BURLINGTON     MOSUNNY   24  18  78 W8        30.49S WCI  15
WAUKESHA       CLOUDY    16  10  79 W12       30.48F WCI   3
WEST BEND      FLURRIES  18  12  79 W10       30.47S WCI   6
$$

INZ001>003-010>013-019-020-101700-
NORTHWEST INDIANA

CITY           SKY/WX    TMP DP  RH WIND       PRES   REMARKS
GARY*          MOSUNNY   25  14  63 W6        30.55S WCI  18
MICHIGAN CITY* NOT AVBL
RENSSELAER*    NOT AVBL
VALPARAISO     MOSUNNY   24  14  65 W9        30.53S WCI  14
$$

LMZ740>746-101700-
SOUTHERN LAKE MICHIGAN

STATION/POSITION TIME  SKY/WX   TEMP WIND        PRES    VSBY
                                AIR  DIR/SP/G
                 (UTC)          (F)  (DEG/KT/KT) (MB)    (MI)
HARRISON CRIB    NOT AVBL
BURNHAM HARBOR   1600            22  230/  6/ 11   N/A
CALUMET HARBOR   1548            23  240/  5/ 11 1033.1R
BURNS HARBOR     1540            23  260/ 11/ 16 1033.9S
MICHIGAN CITY    NOT AVBL
$$

ABBREVIATIONS USED IN REMARKS
   TC - TEMPERATURE IN CELSIUS
  WCI - WIND CHILL INDEX
   HX - HEAT INDEX
  VSB - VISIBILITY
$$



USA.gov is the U.S. government's official web portal to all federal, state and local government web resources and services.